Nett Lake, MN

1:44 PM CDT on August 29, 2016 (GMT -0500)
Orr Regional

Weather History for KORB - October, 2011

Change the Weather History Date:

Sunday, October 30, 2011

  Actual Average Record
Temperature  
Mean Temperature 42 °F -  
Max Temperature 50 °F 41 °F 69 °F (2008)
Min Temperature 33 °F 26 °F 15 °F (1996)
Degree Days  
Heating Degree Days 24    
Moisture  
Dew Point 28 °F    
Average Humidity 64    
Maximum Humidity 81    
Minimum Humidity 47    
Precipitation  
Precipitation 0.00 in - - ()
Sea Level Pressure  
Sea Level Pressure 29.84 in    
Wind  
Wind Speed 5 mph (SE)    
Max Wind Speed 8 mph    
Max Gust Speed -    
Visibility 10 miles    
Events      
Averages and records for this station are not official NWS values.
T = Trace of Precipitation, MM = Missing Value Source: NWS Daily Summary

Daily Weather History Graph

Daily Weather History Graph

Search for Another Location

Airport or City:

Trip Planner

Search our weather history database for the weather conditions in past years. The results will help you decide how hot, cold, wet, or windy it might be!

Date:

Astronomy

Oct. 30, 2011 Rise Set
Actual Time 7:52 AM CDT 5:56 PM CDT
Civil Twilight 7:20 AM CDT 6:28 PM CDT
Nautical Twilight 6:44 AM CDT 7:05 PM CDT
Astronomical Twilight 6:08 AM CDT 7:41 PM CDT
Moon 12:26 PM CDT (10/30) 9:12 PM CDT (10/30)
Length of Visible Light 11h 08m
Length of Day
10h 03m
Waxing Crescent, 20% of the Moon is Illuminated
Oct 30
Waxing Crescent
Nov 2
First Quarter
Nov 10
Full
Nov 18
Last Quarter
Nov 25
New

Hourly Weather History & Observations

Time (CDT) Temp. Windchill Dew Point Humidity Pressure Visibility Wind Dir Wind Speed Gust Speed Precip Events Conditions
12:14 AM 33.8 °F 29.6 °F 26.6 °F 75% 29.90 in 10.0 mi SE 4.6 mph - N/A   Clear
12:34 AM 33.8 °F 28.6 °F 26.6 °F 75% 29.89 in 10.0 mi SE 5.8 mph - N/A   Scattered Clouds
12:54 AM 33.8 °F 29.6 °F 26.6 °F 75% 29.89 in 10.0 mi SE 4.6 mph - N/A   Mostly Cloudy
1:14 AM 33.8 °F 30.8 °F 26.6 °F 75% 29.89 in 10.0 mi SE 3.5 mph - N/A   Mostly Cloudy
1:35 AM 33.8 °F 30.8 °F 26.6 °F 75% 29.88 in 10.0 mi ESE 3.5 mph - N/A   Mostly Cloudy
1:54 AM 33.8 °F 30.8 °F 26.6 °F 75% 29.88 in 10.0 mi ESE 3.5 mph - N/A   Mostly Cloudy
2:14 AM 33.8 °F 29.6 °F 28.4 °F 81% 29.88 in 10.0 mi SE 4.6 mph - N/A   Mostly Cloudy
2:54 AM 33.8 °F 28.6 °F 28.4 °F 81% 29.87 in 10.0 mi ESE 5.8 mph - N/A   Overcast
3:15 AM 33.8 °F 28.6 °F 28.4 °F 81% 29.86 in 10.0 mi SE 5.8 mph - N/A   Overcast
3:34 AM 33.8 °F 29.6 °F 28.4 °F 81% 29.85 in 10.0 mi SE 4.6 mph - N/A   Overcast
3:54 AM 33.8 °F 29.6 °F 28.4 °F 81% 29.85 in 10.0 mi SE 4.6 mph - N/A   Mostly Cloudy
4:14 AM 35.6 °F 31.7 °F 26.6 °F 70% 29.84 in 10.0 mi ESE 4.6 mph - N/A   Mostly Cloudy
4:34 AM 35.6 °F 31.7 °F 26.6 °F 70% 29.83 in 10.0 mi ESE 4.6 mph - N/A   Overcast
4:54 AM 35.6 °F 32.8 °F 26.6 °F 70% 29.83 in 10.0 mi ESE 3.5 mph - N/A   Overcast
5:14 AM 35.6 °F 30.7 °F 26.6 °F 70% 29.83 in 10.0 mi ESE 5.8 mph - N/A   Overcast
5:34 AM 35.6 °F 31.7 °F 26.6 °F 70% 29.83 in 10.0 mi ESE 4.6 mph - N/A   Overcast
5:54 AM 35.6 °F 30.7 °F 26.6 °F 70% 29.83 in 10.0 mi SE 5.8 mph - N/A   Overcast
6:14 AM 35.6 °F 31.7 °F 26.6 °F 70% 29.82 in 10.0 mi ESE 4.6 mph - N/A   Overcast
6:34 AM 35.6 °F 30.7 °F 26.6 °F 70% 29.83 in 10.0 mi SE 5.8 mph - N/A   Overcast
6:54 AM 35.6 °F 30.7 °F 26.6 °F 70% 29.82 in 10.0 mi ESE 5.8 mph - N/A   Overcast
7:14 AM 35.6 °F 32.8 °F 26.6 °F 70% 29.82 in 10.0 mi SE 3.5 mph - N/A   Overcast
7:34 AM 35.6 °F 31.7 °F 26.6 °F 70% 29.82 in 10.0 mi ESE 4.6 mph - N/A   Overcast
8:14 AM 35.6 °F 30.7 °F 26.6 °F 70% 29.82 in 10.0 mi ESE 5.8 mph - N/A   Overcast
8:34 AM 37.4 °F 33.8 °F 26.6 °F 65% 29.82 in 10.0 mi ESE 4.6 mph - N/A   Overcast
8:54 AM 39.2 °F 37.0 °F 26.6 °F 61% 29.82 in 10.0 mi ESE 3.5 mph - N/A   Overcast
9:14 AM 39.2 °F 35.0 °F 26.6 °F 61% 29.82 in 10.0 mi ESE 5.8 mph - N/A   Overcast
9:34 AM 41.0 °F 37.1 °F 26.6 °F 57% 29.82 in 10.0 mi SE 5.8 mph - N/A   Overcast
9:54 AM 41.0 °F 38.0 °F 26.6 °F 57% 29.83 in 10.0 mi SE 4.6 mph - N/A   Mostly Cloudy
10:14 AM 41.0 °F 36.4 °F 26.6 °F 57% 29.83 in 10.0 mi SSE 6.9 mph - N/A   Mostly Cloudy
10:34 AM 41.0 °F 35.8 °F 26.6 °F 57% 29.84 in 10.0 mi SSE 8.1 mph - N/A   Overcast
10:54 AM 41.0 °F 36.4 °F 26.6 °F 57% 29.83 in 10.0 mi ESE 6.9 mph - N/A   Overcast
11:14 AM 41.0 °F 38.0 °F 26.6 °F 57% 29.83 in 10.0 mi ESE 4.6 mph - N/A   Overcast
11:34 AM 41.0 °F 38.0 °F 26.6 °F 57% 29.84 in 10.0 mi SE 4.6 mph - N/A   Overcast
11:54 AM 41.0 °F 38.0 °F 26.6 °F 57% 29.84 in 10.0 mi ESE 4.6 mph - N/A   Overcast
12:34 PM 44.6 °F 41.4 °F 28.4 °F 53% 29.83 in 10.0 mi SE 5.8 mph - N/A   Mostly Cloudy
12:55 PM 46.4 °F 42.9 °F 28.4 °F 50% 29.83 in 10.0 mi ESE 6.9 mph - N/A   Mostly Cloudy
1:15 PM 46.4 °F 42.9 °F 28.4 °F 50% 29.82 in 10.0 mi SE 6.9 mph - N/A   Overcast
1:34 PM 46.4 °F 43.5 °F 30.2 °F 53% 29.82 in 10.0 mi ESE 5.8 mph - N/A   Mostly Cloudy
2:14 PM 50.0 °F - 30.2 °F 47% 29.82 in 10.0 mi ESE 6.9 mph - N/A   Scattered Clouds
2:34 PM 50.0 °F - 30.2 °F 47% 29.82 in 10.0 mi SE 8.1 mph - N/A   Mostly Cloudy
2:54 PM 48.2 °F - 30.2 °F 50% 29.82 in 10.0 mi East 8.1 mph - N/A   Scattered Clouds
3:34 PM 48.2 °F - 30.2 °F 50% 29.82 in 10.0 mi SE 8.1 mph - N/A   Overcast
3:54 PM 48.2 °F - 30.2 °F 50% 29.83 in 10.0 mi ESE 4.6 mph - N/A   Mostly Cloudy
4:14 PM 46.4 °F 43.5 °F 30.2 °F 53% 29.84 in 10.0 mi SE 5.8 mph - N/A   Mostly Cloudy
4:34 PM 46.4 °F 43.5 °F 30.2 °F 53% 29.84 in 10.0 mi ESE 5.8 mph - N/A   Overcast
4:55 PM 46.4 °F 43.5 °F 30.2 °F 53% 29.85 in 10.0 mi ESE 5.8 mph - N/A   Scattered Clouds
5:14 PM 44.6 °F - 28.4 °F 53% 29.85 in 10.0 mi Calm Calm - N/A   Clear
5:34 PM 44.6 °F - 30.2 °F 57% 29.85 in 10.0 mi Calm Calm - N/A   Clear
6:14 PM 39.2 °F 37.0 °F 30.2 °F 70% 29.87 in 10.0 mi ESE 3.5 mph - N/A   Clear
6:34 PM 39.2 °F - 30.2 °F 70% 29.88 in 10.0 mi Calm Calm - N/A   Clear
6:54 PM 37.4 °F - 30.2 °F 75% 29.89 in 10.0 mi Calm Calm - N/A   Clear
7:14 PM 35.6 °F - 30.2 °F 81% 29.89 in 10.0 mi Calm Calm - N/A   Clear
7:34 PM 33.8 °F 30.8 °F 28.4 °F 81% 29.90 in 10.0 mi ESE 3.5 mph - N/A   Clear
7:54 PM 37.4 °F 34.9 °F 30.2 °F 75% 29.90 in 10.0 mi ESE 3.5 mph - N/A   Clear
8:14 PM 35.6 °F - 30.2 °F 81% 29.90 in 10.0 mi Calm Calm - N/A   Clear
8:34 PM 35.6 °F - 30.2 °F 81% 29.91 in 10.0 mi Calm Calm - N/A   Clear
8:54 PM 35.6 °F 32.8 °F 30.2 °F 81% 29.90 in 10.0 mi ESE 3.5 mph - N/A   Scattered Clouds
9:14 PM 35.6 °F - 30.2 °F 81% 29.91 in 10.0 mi Calm Calm - N/A   Clear
9:34 PM 33.8 °F - 30.2 °F 87% 29.90 in 10.0 mi Calm Calm - N/A   Clear
10:15 PM 30.2 °F 26.7 °F 28.4 °F 93% 29.90 in 10.0 mi ESE 3.5 mph - N/A   Clear
10:34 PM 33.8 °F 30.8 °F 30.2 °F 87% 29.90 in 10.0 mi ESE 3.5 mph - N/A   Clear
10:54 PM 33.8 °F - 30.2 °F 87% 29.91 in 10.0 mi Calm Calm - N/A   Scattered Clouds
11:14 PM 30.2 °F - 26.6 °F 86% 29.91 in 10.0 mi Calm Calm - N/A   Mostly Cloudy
11:34 PM 30.2 °F 26.7 °F 28.4 °F 93% 29.91 in 10.0 mi ESE 3.5 mph - N/A   Scattered Clouds
11:54 PM 28.4 °F - 26.6 °F 93% 29.91 in 10.0 mi Calm Calm - N/A   Clear